Poplar Bluff, MO

6:32 PM CDT on April 30, 2017 (GMT -0500)
Poplar Bluff Municipal

Weather History for KPOF - November, 2013

Change the Weather History Date:

Thursday, November 14, 2013

  Actual Average Record
Temperature  
Mean Temperature 40 °F -  
Max Temperature 55 °F 57 °F 79 °F (1931)
Min Temperature 26 °F 36 °F 12 °F (1940)
Degree Days  
Heating Degree Days 24    
Moisture  
Dew Point 24 °F    
Average Humidity 57    
Maximum Humidity 78    
Minimum Humidity 28    
Precipitation  
Precipitation 0.02 in - - ()
Sea Level Pressure  
Sea Level Pressure 30.26 in    
Wind  
Wind Speed 3 mph (South)    
Max Wind Speed 15 mph    
Max Gust Speed -    
Visibility 10 miles    
Events Rain    
Averages and records for this station are not official NWS values.
T = Trace of Precipitation, MM = Missing Value Source: NWS Daily Summary

Daily Weather History Graph

Daily Weather History Graph

Search for Another Location

Airport or City:

Trip Planner

Search our weather history database for the weather conditions in past years. The results will help you decide how hot, cold, wet, or windy it might be!

Date:

Astronomy

Nov. 14, 2013 Rise Set
Actual Time 6:38 AM CST 4:52 PM CST
Civil Twilight 6:11 AM CST 5:20 PM CST
Nautical Twilight 5:39 AM CST 5:51 PM CST
Astronomical Twilight 5:09 AM CST 6:21 PM CST
Moon 3:10 PM CST (11/14) 3:38 AM CST (11/14)
Length of Visible Light 11h 09m
Length of Day
10h 13m
Waxing Gibbous, 92% of the Moon is Illuminated
Nov 14
Waxing Gibbous
Nov 17
Full
Nov 25
Last Quarter
Dec 2
New
Dec 9
First Quarter

Hourly Weather History & Observations

Time (CST) Temp. Windchill Dew Point Humidity Pressure Visibility Wind Dir Wind Speed Gust Speed Precip Events Conditions
12:53 AM 28.9 °F - 21.0 °F 72% 30.41 in 9.0 mi Calm Calm - N/A   Clear
1:53 AM 28.0 °F - 21.0 °F 75% 30.40 in 10.0 mi Calm Calm - N/A   Clear
2:53 AM 27.0 °F - 19.9 °F 75% 30.39 in 10.0 mi Calm Calm - N/A   Clear
3:53 AM 27.0 °F - 21.0 °F 78% 30.39 in 10.0 mi Calm Calm - N/A   Clear
4:53 AM 27.0 °F - 19.9 °F 75% 30.38 in 10.0 mi Calm Calm - N/A   Clear
5:53 AM 26.1 °F - 19.0 °F 75% 30.37 in 10.0 mi Calm Calm - N/A   Clear
6:53 AM 26.1 °F - 19.0 °F 75% 30.37 in 9.0 mi Calm Calm - N/A   Clear
7:53 AM 33.1 °F - 24.1 °F 70% 30.38 in 10.0 mi Calm Calm - 0.01 in   Clear
8:53 AM 39.0 °F 32.8 °F 26.1 °F 60% 30.38 in 9.0 mi SSW 9.2 mph - 0.01 in   Unknown
10:53 AM 48.9 °F - 25.0 °F 39% 30.31 in 10.0 mi SSW 13.8 mph - 0.00 in   Unknown
11:53 AM 51.1 °F - 21.9 °F 32% 30.27 in 10.0 mi SSW 13.8 mph - 0.00 in Rain Light Rain
12:53 PM 53.1 °F - 21.9 °F 30% 30.23 in 10.0 mi SW 15.0 mph - 0.00 in Rain Light Rain
1:53 PM 55.9 °F - 23.0 °F 28% 30.20 in 10.0 mi SSW 13.8 mph - 0.00 in   Clear
2:53 PM 54.0 °F - 24.1 °F 31% 30.18 in 10.0 mi SSW 10.4 mph - 0.00 in   Clear
3:53 PM 54.0 °F - 25.0 °F 33% 30.18 in 10.0 mi South 10.4 mph - N/A   Clear
4:53 PM 50.0 °F - 24.1 °F 36% 30.16 in 10.0 mi South 6.9 mph - N/A   Clear
5:53 PM 45.0 °F 43.5 °F 25.0 °F 46% 30.16 in 10.0 mi South 3.5 mph - N/A   Clear
6:53 PM 43.0 °F 40.3 °F 26.1 °F 51% 30.15 in 10.0 mi SE 4.6 mph - N/A   Clear
7:53 PM 42.1 °F 40.2 °F 26.1 °F 53% 30.16 in 10.0 mi SSW 3.5 mph - N/A   Clear
8:53 PM 39.9 °F - 28.0 °F 63% 30.15 in 10.0 mi Calm Calm - N/A   Clear
9:53 PM 39.9 °F - 30.0 °F 68% 30.13 in 10.0 mi Calm Calm - N/A   Clear
10:53 PM 39.9 °F - 30.9 °F 70% 30.15 in 10.0 mi Calm Calm - N/A   Clear
11:53 PM 39.0 °F 34.8 °F 28.9 °F 67% 30.13 in 10.0 mi SSE 5.8 mph - N/A   Clear